Location: Alpha Ridge Park
(39.3209°N, 76.9128°W)
Time: 04:46:18
(UTC-04:00)

Vanguard 2 Rocket - Pass Details

Date: 24 May 2019
Orbit: 555 x 3326 km, 32.9° (Epoch: 24 June)

Event Time Altitude Azimuth Distance (km) Brightness Sun altitude
Rises 04:15:21 0° 208° (SSW) 7,219 - -15.2°
Exits shadow 04:20:36 - 201° (SSW) 6,359 10.6 -14.5°
Reaches altitude 10° 04:21:09 10° 200° (SSW) 6,273 10.6 -14.4°
Maximum altitude 04:37:08 31° 147° (SSE) 4,393 10.3 -12.1°
Drops below altitude 10° 04:49:55 10° 93° (E) 5,052 11.5 -10.2°
Sets 04:53:51 0° 84° (E) 5,694 12.1 -9.6°
